Location: Castiglione Fibocchi
(43.5333°N, 11.7667°E)
Time: 14:28:17
(UTC+00:00)

Cosmos 1943 - Pass Details

Date: 15 August 2020
Orbit: 834 x 849 km, 71.0° (Epoch: 25 September)

Event Time Altitude Azimuth Distance (km) Brightness Sun altitude
Rises 01:06:00 0° 336° (NNW) 3,391 6.8 -27.4°
Reaches altitude 10° 01:08:28 10° 339° (NNW) 2,454 6.0 -27.2°
Maximum altitude 01:14:05 73° 64° (ENE) 876 3.3 -26.6°
Enters shadow 01:15:47 46° 135° (SE) 1,118 3.7 -26.5°
